Time,TemperatureF,DewpointF,PressureIn,WindDirection,WindDirectionDegrees,WindSpeedMPH,WindSpeedGustMPH,Humidity,HourlyPrecipIn,Conditions,Clouds,dailyrainin,SoftwareType,DateUTC
2013-03-07 00:00:00,41.5,37.9,24.80,SW,225,0.0,0.0,87,0.00,,---,0.26,VWS V13.01,2013-03-07 08:00:00,
2013-03-07 00:06:00,41.5,37.9,24.80,North,0,0.0,0.0,87,0.00,,---,0.00,VWS V13.01,2013-03-07 08:06:00,
2013-03-07 00:11:00,41.3,38.0,24.80,SW,225,0.0,0.0,88,0.00,,---,0.00,VWS V13.01,2013-03-07 08:11:00,
2013-03-07 00:16:00,41.3,38.0,24.80,SW,225,0.0,0.0,88,0.00,,---,0.00,VWS V13.01,2013-03-07 08:16:00,
2013-03-07 00:21:00,41.2,37.9,24.80,SW,225,0.0,0.0,88,0.00,,---,0.00,VWS V13.01,2013-03-07 08:21:00,
2013-03-07 00:26:00,41.3,38.0,24.80,SW,225,0.0,0.0,88,0.00,,---,0.00,VWS V13.01,2013-03-07 08:26:00,
2013-03-07 00:31:00,41.3,38.0,24.76,SW,225,0.0,0.0,88,0.00,,---,0.00,VWS V13.01,2013-03-07 08:31:00,
2013-03-07 00:36:00,41.3,38.0,24.78,SW,225,0.0,0.0,88,0.00,,---,0.00,VWS V13.01,2013-03-07 08:36:00,
2013-03-07 00:41:00,41.2,37.9,24.78,SW,225,0.0,0.0,88,0.00,,---,0.00,VWS V13.01,2013-03-07 08:41:00,
2013-03-07 00:46:00,41.1,37.8,24.77,SW,225,0.0,0.0,88,0.00,,---,0.00,VWS V13.01,2013-03-07 08:46:00,
2013-03-07 00:51:00,40.9,37.6,24.77,SW,225,0.0,0.0,88,0.00,,---,0.00,VWS V13.01,2013-03-07 08:51:00,
2013-03-07 00:56:00,40.8,37.5,24.76,SW,225,0.0,0.0,88,0.00,,---,0.00,VWS V13.01,2013-03-07 08:56:00,
2013-03-07 01:01:00,40.8,37.5,24.75,SW,225,0.0,0.0,88,0.00,,---,0.00,VWS V13.01,2013-03-07 09:01:00,
2013-03-07 01:06:00,40.7,37.4,24.75,SW,225,0.0,0.0,88,0.00,,---,0.00,VWS V13.01,2013-03-07 09:06:00,
2013-03-07 01:11:00,40.6,37.3,24.74,SW,225,0.0,0.0,88,0.00,,---,0.00,VWS V13.01,2013-03-07 09:11:00,
2013-03-07 01:16:00,40.6,37.3,24.74,SW,225,0.0,0.0,88,0.00,,---,0.00,VWS V13.01,2013-03-07 09:16:00,
2013-03-07 01:21:00,40.5,37.2,24.74,SW,225,0.0,0.0,88,0.00,,---,0.00,VWS V13.01,2013-03-07 09:21:00,
2013-03-07 01:26:00,40.4,37.1,24.73,SW,225,0.0,0.0,88,0.00,,---,0.00,VWS V13.01,2013-03-07 09:26:00,
2013-03-07 01:31:00,40.3,37.0,24.73,SW,225,0.0,0.0,88,0.00,,---,0.00,VWS V13.01,2013-03-07 09:31:00,
2013-03-07 01:36:00,40.4,37.4,24.73,SW,225,0.0,0.0,89,0.00,,---,0.00,VWS V13.01,2013-03-07 09:36:00,
2013-03-07 01:41:00,40.5,37.5,24.72,SW,225,0.0,0.0,89,0.00,,---,0.00,VWS V13.01,2013-03-07 09:41:00,
2013-03-07 01:46:00,40.2,36.9,24.73,SW,225,0.0,0.0,88,0.00,,---,0.00,VWS V13.01,2013-03-07 09:46:00,
2013-03-07 01:51:00,40.1,36.8,24.73,SW,225,0.0,0.0,88,0.00,,---,0.00,VWS V13.01,2013-03-07 09:51:00,
2013-03-07 01:56:00,39.9,36.9,24.73,SW,225,0.0,0.0,89,0.00,,---,0.00,VWS V13.01,2013-03-07 09:56:00,
2013-03-07 02:01:00,39.8,36.8,24.72,SW,225,0.0,0.0,89,0.00,,---,0.00,VWS V13.01,2013-03-07 10:01:00,
2013-03-07 02:06:00,39.7,36.7,24.74,SW,225,0.0,0.0,89,0.00,,---,0.00,VWS V13.01,2013-03-07 10:06:00,
2013-03-07 02:11:00,39.7,36.7,24.72,SW,225,0.0,0.0,89,0.00,,---,0.00,VWS V13.01,2013-03-07 10:11:00,
2013-03-07 02:16:00,39.6,36.6,24.72,SW,225,0.0,0.0,89,0.00,,---,0.00,VWS V13.01,2013-03-07 10:16:00,
2013-03-07 02:21:00,39.6,36.6,24.72,SW,225,0.0,0.0,89,0.00,,---,0.00,VWS V13.01,2013-03-07 10:21:00,
2013-03-07 02:26:00,39.6,36.6,24.72,SW,225,0.0,0.0,89,0.00,,---,0.00,VWS V13.01,2013-03-07 10:26:00,
2013-03-07 02:31:00,39.6,36.6,24.70,SW,225,0.0,0.0,89,0.00,,---,0.00,VWS V13.01,2013-03-07 10:31:00,
2013-03-07 02:36:00,39.6,36.6,24.70,SW,225,0.0,0.0,89,0.00,,---,0.00,VWS V13.01,2013-03-07 10:36:00,
2013-03-07 02:41:00,39.5,36.5,24.71,SW,225,0.0,0.0,89,0.00,,---,0.00,VWS V13.01,2013-03-07 10:41:00,
2013-03-07 02:46:00,39.5,36.5,24.70,SW,225,0.0,0.0,89,0.00,,---,0.00,VWS V13.01,2013-03-07 10:46:00,
2013-03-07 02:51:00,39.5,36.5,24.69,SW,225,0.0,0.0,89,0.00,,---,0.00,VWS V13.01,2013-03-07 10:51:00,
2013-03-07 02:56:00,39.6,36.6,21.36,SW,225,0.0,0.0,89,0.00,,---,0.00,VWS V13.01,2013-03-07 10:56:00,
2013-03-07 03:01:00,39.7,36.7,24.70,SW,225,0.0,0.0,89,0.00,,---,0.00,VWS V13.01,2013-03-07 11:01:00,
2013-03-07 03:06:00,39.7,36.7,24.70,SW,225,0.0,0.0,89,0.00,,---,0.00,VWS V13.01,2013-03-07 11:06:00,
2013-03-07 03:11:00,39.8,36.8,24.69,SW,225,0.0,0.0,89,0.00,,---,0.00,VWS V13.01,2013-03-07 11:11:00,
2013-03-07 03:16:00,39.8,36.8,24.70,SW,225,0.0,0.0,89,0.00,,---,0.00,VWS V13.01,2013-03-07 11:16:00,
2013-03-07 03:22:00,39.8,36.8,24.69,SW,225,0.0,0.0,89,0.00,,---,0.00,VWS V13.01,2013-03-07 11:22:00,
2013-03-07 03:27:00,39.7,36.7,24.69,SW,225,0.0,0.0,89,0.00,,---,0.00,VWS V13.01,2013-03-07 11:27:00,
2013-03-07 03:32:00,39.7,36.7,24.70,SW,225,0.0,0.0,89,0.00,,---,0.00,VWS V13.01,2013-03-07 11:32:00,
2013-03-07 03:37:00,39.8,36.8,24.69,SW,225,0.0,0.0,89,0.00,,---,0.00,VWS V13.01,2013-03-07 11:37:00,
2013-03-07 03:42:00,39.7,36.7,24.69,SW,225,0.0,0.0,89,0.00,,---,0.00,VWS V13.01,2013-03-07 11:42:00,
2013-03-07 03:47:00,39.9,36.9,24.69,SW,225,0.0,0.0,89,0.00,,---,0.00,VWS V13.01,2013-03-07 11:47:00,
2013-03-07 03:52:00,39.9,36.9,24.69,SW,225,0.0,0.0,89,0.00,,---,0.00,VWS V13.01,2013-03-07 11:52:00,
2013-03-07 03:57:00,39.9,36.9,24.69,SW,225,0.0,0.0,89,0.00,,---,0.00,VWS V13.01,2013-03-07 11:57:00,
2013-03-07 04:02:00,40.0,37.3,24.69,SW,225,0.0,0.0,90,0.00,,---,0.00,VWS V13.01,2013-03-07 12:02:00,
2013-03-07 04:07:00,40.0,37.3,24.69,SW,225,0.0,0.0,90,0.00,,---,0.00,VWS V13.01,2013-03-07 12:07:00,
2013-03-07 04:12:00,40.1,37.4,24.69,SW,225,0.0,0.0,90,0.00,,---,0.00,VWS V13.01,2013-03-07 12:12:00,
2013-03-07 04:17:00,40.1,37.4,24.69,SW,225,0.0,0.0,90,0.00,,---,0.00,VWS V13.01,2013-03-07 12:17:00,
2013-03-07 04:22:00,40.3,37.6,24.69,SW,225,0.0,0.0,90,0.00,,---,0.00,VWS V13.01,2013-03-07 12:22:00,
2013-03-07 04:27:00,40.4,37.7,24.68,SW,225,0.0,0.0,90,0.00,,---,0.00,VWS V13.01,2013-03-07 12:27:00,
2013-03-07 04:33:00,40.6,37.9,24.68,SW,225,0.0,0.0,90,0.00,,---,0.00,VWS V13.01,2013-03-07 12:33:00,
2013-03-07 04:37:00,40.6,37.9,24.69,SW,225,0.0,0.0,90,0.00,,---,0.00,VWS V13.01,2013-03-07 12:37:00,
2013-03-07 04:43:00,40.6,37.6,24.67,SW,225,0.0,0.0,89,0.00,,---,0.00,VWS V13.01,2013-03-07 12:43:00,
2013-03-07 04:48:00,40.6,37.6,24.69,SW,225,0.0,0.0,89,0.00,,---,0.00,VWS V13.01,2013-03-07 12:48:00,
2013-03-07 04:53:00,40.7,38.0,24.69,SW,225,0.0,0.0,90,0.00,,---,0.00,VWS V13.01,2013-03-07 12:53:00,
2013-03-07 04:58:00,40.7,37.7,24.68,SW,225,0.0,0.0,89,0.00,,---,0.00,VWS V13.01,2013-03-07 12:58:00,
2013-03-07 05:03:00,40.7,38.0,24.67,SW,225,0.0,0.0,90,0.00,,---,0.00,VWS V13.01,2013-03-07 13:03:00,
2013-03-07 05:08:00,40.7,38.0,24.67,SW,225,0.0,0.0,90,0.00,,---,0.00,VWS V13.01,2013-03-07 13:08:00,
2013-03-07 05:13:00,40.7,38.0,24.68,SW,225,0.0,0.0,90,0.00,,---,0.01,VWS V13.01,2013-03-07 13:13:00,
2013-03-07 05:18:00,40.7,38.0,24.68,SW,225,0.0,0.0,90,0.01,,---,0.01,VWS V13.01,2013-03-07 13:18:00,
2013-03-07 05:23:00,40.7,38.0,24.67,SW,225,0.0,0.0,90,0.01,,---,0.01,VWS V13.01,2013-03-07 13:23:00,
2013-03-07 05:28:00,40.7,38.0,24.67,SW,225,0.0,0.0,90,0.01,,---,0.01,VWS V13.01,2013-03-07 13:28:00,
2013-03-07 05:33:00,40.7,38.0,24.66,SW,225,0.0,0.0,90,0.01,,---,0.01,VWS V13.01,2013-03-07 13:33:00,
2013-03-07 05:38:00,40.7,38.0,24.66,SW,225,0.0,0.0,90,0.01,,---,0.01,VWS V13.01,2013-03-07 13:38:00,
2013-03-07 05:43:00,40.8,37.8,24.67,SW,225,0.0,0.0,89,0.01,,---,0.01,VWS V13.01,2013-03-07 13:43:00,
2013-03-07 05:48:00,40.7,37.7,24.66,SW,225,0.0,0.0,89,0.01,,---,0.01,VWS V13.01,2013-03-07 13:48:00,
2013-03-07 05:53:00,40.7,38.0,24.66,SW,225,0.0,0.0,90,0.01,,---,0.01,VWS V13.01,2013-03-07 13:53:00,
2013-03-07 05:58:00,40.7,38.0,24.66,SW,225,0.0,0.0,90,0.01,,---,0.01,VWS V13.01,2013-03-07 13:58:00,
2013-03-07 06:03:00,40.6,37.6,24.66,SW,225,0.0,0.0,89,0.01,,---,0.01,VWS V13.01,2013-03-07 14:03:00,
2013-03-07 06:08:00,40.5,37.5,24.66,SW,225,0.0,0.0,89,0.01,,---,0.01,VWS V13.01,2013-03-07 14:08:00,
2013-03-07 06:13:00,40.5,37.5,24.65,SW,225,0.0,0.0,89,0.01,,---,0.01,VWS V13.01,2013-03-07 14:13:00,
2013-03-07 06:18:00,40.4,37.4,24.65,SW,225,0.0,0.0,89,0.01,,---,0.01,VWS V13.01,2013-03-07 14:18:00,
2013-03-07 06:23:00,40.4,37.4,24.65,SW,225,0.0,0.0,89,0.01,,---,0.01,VWS V13.01,2013-03-07 14:23:00,
2013-03-07 06:28:00,40.3,37.3,24.65,SW,225,0.0,0.0,89,0.01,,---,0.01,VWS V13.01,2013-03-07 14:28:00,
2013-03-07 06:33:00,40.3,37.6,24.65,SW,225,0.0,0.0,90,0.01,,---,0.01,VWS V13.01,2013-03-07 14:33:00,
2013-03-07 06:38:00,40.4,37.7,24.65,SW,225,0.0,0.0,90,0.01,,---,0.01,VWS V13.01,2013-03-07 14:38:00,
2013-03-07 06:43:00,40.4,37.7,24.65,SW,225,0.0,0.0,90,0.01,,---,0.01,VWS V13.01,2013-03-07 14:43:00,
2013-03-07 06:48:00,40.4,37.7,24.65,SW,225,0.0,0.0,90,0.01,,---,0.01,VWS V13.01,2013-03-07 14:48:00,
2013-03-07 06:53:00,40.5,37.8,24.64,SW,225,0.0,0.0,90,0.01,,---,0.01,VWS V13.01,2013-03-07 14:53:00,
2013-03-07 06:58:00,40.6,37.9,24.65,SW,225,0.0,0.0,90,0.01,,---,0.01,VWS V13.01,2013-03-07 14:58:00,
2013-03-07 07:03:00,40.7,38.0,24.64,SW,225,0.0,0.0,90,0.00,,---,0.01,VWS V13.01,2013-03-07 15:03:00,
2013-03-07 07:08:00,40.8,38.1,24.65,SW,225,0.0,0.0,90,0.00,,---,0.01,VWS V13.01,2013-03-07 15:08:00,
2013-03-07 07:13:00,40.9,38.2,24.65,SW,225,0.0,0.0,90,0.00,,---,0.01,VWS V13.01,2013-03-07 15:13:00,
2013-03-07 07:18:00,41.0,38.3,24.64,SW,225,0.0,0.0,90,0.00,,---,0.01,VWS V13.01,2013-03-07 15:18:00,
2013-03-07 07:23:00,41.2,38.5,24.64,SW,225,0.0,0.0,90,0.00,,---,0.01,VWS V13.01,2013-03-07 15:23:00,
2013-03-07 07:28:00,41.4,38.7,24.64,SW,225,0.0,0.0,90,0.00,,---,0.01,VWS V13.01,2013-03-07 15:28:00,
2013-03-07 07:33:00,41.6,38.9,24.64,SW,225,0.0,0.0,90,0.00,,---,0.01,VWS V13.01,2013-03-07 15:33:00,
2013-03-07 07:38:00,41.9,39.2,24.64,SW,225,0.0,0.0,90,0.00,,---,0.01,VWS V13.01,2013-03-07 15:38:00,
2013-03-07 07:43:00,42.1,39.4,24.64,SW,225,0.0,0.0,90,0.00,,---,0.01,VWS V13.01,2013-03-07 15:43:00,
2013-03-07 07:48:00,42.4,39.7,24.64,SW,225,0.0,0.0,90,0.00,,---,0.01,VWS V13.01,2013-03-07 15:48:00,
2013-03-07 07:53:00,42.7,40.0,24.64,SW,225,0.0,0.0,90,0.00,,---,0.01,VWS V13.01,2013-03-07 15:53:00,
2013-03-07 07:58:00,42.9,40.2,24.64,SW,225,0.0,0.0,90,0.00,,---,0.01,VWS V13.01,2013-03-07 15:58:00,
2013-03-07 08:03:00,43.0,40.3,24.64,SW,225,0.0,0.0,90,0.00,,---,0.01,VWS V13.01,2013-03-07 16:03:00,
2013-03-07 08:08:00,43.4,40.7,24.65,SW,225,0.0,1.0,90,0.00,,---,0.01,VWS V13.01,2013-03-07 16:08:00,
2013-03-07 08:13:00,43.6,40.6,24.70,SW,225,0.0,1.0,89,0.00,,---,0.01,VWS V13.01,2013-03-07 16:13:00,
2013-03-07 08:18:00,43.8,40.8,24.76,SW,225,0.0,1.0,89,0.00,,---,0.01,VWS V13.01,2013-03-07 16:18:00,
2013-03-07 08:24:00,44.1,41.1,24.80,SW,225,0.0,1.0,89,0.00,,---,0.01,VWS V13.01,2013-03-07 16:24:00,
2013-03-07 08:29:00,44.4,41.4,24.80,SW,225,0.0,1.0,89,0.00,,---,0.01,VWS V13.01,2013-03-07 16:29:00,
2013-03-07 08:34:00,44.7,41.7,24.80,SW,225,0.0,1.0,89,0.00,,---,0.01,VWS V13.01,2013-03-07 16:34:00,
2013-03-07 08:39:00,44.9,41.6,24.80,SW,225,0.0,1.0,88,0.00,,---,0.01,VWS V13.01,2013-03-07 16:39:00,
2013-03-07 08:44:00,45.1,41.8,24.80,SW,225,0.0,1.0,88,0.00,,---,0.01,VWS V13.01,2013-03-07 16:44:00,
2013-03-07 08:49:00,45.3,41.7,24.80,SW,227,0.0,1.0,87,0.00,,---,0.01,VWS V13.01,2013-03-07 16:49:00,
2013-03-07 08:54:00,45.5,41.9,24.80,SW,227,0.0,1.0,87,0.00,,---,0.01,VWS V13.01,2013-03-07 16:54:00,
2013-03-07 08:59:00,45.9,42.3,24.80,SW,225,0.0,1.0,87,0.00,,---,0.01,VWS V13.01,2013-03-07 16:59:00,
2013-03-07 09:04:00,46.3,42.7,24.80,SW,223,0.0,2.0,87,0.00,,---,0.01,VWS V13.01,2013-03-07 17:04:00,
2013-03-07 09:09:00,46.7,43.0,24.80,SW,223,0.0,2.0,87,0.00,,---,0.01,VWS V13.01,2013-03-07 17:09:00,
2013-03-07 09:14:00,46.9,42.9,24.80,SW,223,0.0,2.0,86,0.00,,---,0.01,VWS V13.01,2013-03-07 17:14:00,
2013-03-07 09:19:00,47.1,43.1,24.80,SW,223,0.0,2.0,86,0.00,,---,0.01,VWS V13.01,2013-03-07 17:19:00,
2013-03-07 09:24:00,47.4,43.1,24.80,NE,38,2.0,3.0,85,0.00,,---,0.01,VWS V13.01,2013-03-07 17:24:00,
2013-03-07 09:29:00,47.5,43.2,24.80,NE,35,0.0,3.0,85,0.00,,---,0.01,VWS V13.01,2013-03-07 17:29:00,
2013-03-07 09:34:00,47.8,44.7,24.80,NNE,31,0.0,3.0,89,0.00,,---,0.01,VWS V13.01,2013-03-07 17:34:00,
2013-03-07 09:39:00,47.7,43.4,24.80,ENE,75,1.0,4.0,85,0.00,,---,0.01,VWS V13.01,2013-03-07 17:39:00,
2013-03-07 09:44:00,47.7,43.4,24.80,East,86,0.0,4.0,85,0.00,,---,0.01,VWS V13.01,2013-03-07 17:44:00,
2013-03-07 09:49:00,47.8,43.8,24.80,East,86,0.0,4.0,86,0.00,,---,0.01,VWS V13.01,2013-03-07 17:49:00,
2013-03-07 09:54:00,48.0,44.0,24.80,East,87,0.0,4.0,86,0.00,,---,0.01,VWS V13.01,2013-03-07 17:54:00,
2013-03-07 09:59:00,48.4,44.1,24.80,East,87,0.0,4.0,85,0.00,,---,0.01,VWS V13.01,2013-03-07 17:59:00,
2013-03-07 10:04:00,48.7,44.1,24.80,East,87,0.0,0.0,84,0.00,,---,0.01,VWS V13.01,2013-03-07 18:04:00,
2013-03-07 10:09:00,49.0,44.4,24.80,East,87,0.0,1.0,84,0.00,,---,0.01,VWS V13.01,2013-03-07 18:09:00,
2013-03-07 10:14:00,49.4,44.8,24.80,East,87,0.0,1.0,84,0.00,,---,0.01,VWS V13.01,2013-03-07 18:14:00,
2013-03-07 10:19:00,50.1,45.2,24.80,East,87,1.0,1.0,83,0.00,,---,0.01,VWS V13.01,2013-03-07 18:19:00,
2013-03-07 10:24:00,50.7,45.4,24.80,East,87,0.0,1.0,82,0.00,,---,0.01,VWS V13.01,2013-03-07 18:24:00,
2013-03-07 10:29:00,51.2,44.9,24.80,East,88,0.0,4.0,79,0.00,,---,0.01,VWS V13.01,2013-03-07 18:29:00,
2013-03-07 10:34:00,51.8,44.1,24.80,East,91,1.0,4.0,75,0.00,,---,0.01,VWS V13.01,2013-03-07 18:34:00,
2013-03-07 10:39:00,52.3,43.9,24.80,West,280,3.0,4.0,73,0.00,,---,0.01,VWS V13.01,2013-03-07 18:39:00,
2013-03-07 10:44:00,52.8,43.7,24.80,SW,227,0.0,6.0,71,0.00,,---,0.01,VWS V13.01,2013-03-07 18:44:00,
2013-03-07 10:49:00,53.2,42.9,24.80,SSW,213,0.0,6.0,68,0.00,,---,0.01,VWS V13.01,2013-03-07 18:49:00,
2013-03-07 10:54:00,53.4,44.6,24.80,ESE,107,0.0,6.0,72,0.00,,---,0.01,VWS V13.01,2013-03-07 18:54:00,
2013-03-07 10:59:00,53.4,45.0,24.80,ESE,110,3.0,6.0,73,0.00,,---,0.01,VWS V13.01,2013-03-07 18:59:00,
2013-03-07 11:04:00,52.4,44.7,24.80,East,88,2.0,6.0,75,0.00,,---,0.01,VWS V13.01,2013-03-07 19:04:00,
2013-03-07 11:10:00,51.9,45.3,24.80,ENE,76,5.0,10.0,78,0.00,,---,0.01,VWS V13.01,2013-03-07 19:10:00,
2013-03-07 11:15:00,51.3,45.0,24.80,East,98,3.0,10.0,79,0.00,,---,0.01,VWS V13.01,2013-03-07 19:15:00,
2013-03-07 11:20:00,51.0,44.7,24.80,ESE,119,2.0,10.0,79,0.00,,---,0.01,VWS V13.01,2013-03-07 19:20:00,
2013-03-07 11:25:00,51.2,44.6,24.80,East,101,4.0,10.0,78,0.00,,---,0.01,VWS V13.01,2013-03-07 19:25:00,
2013-03-07 11:30:00,51.7,45.1,24.80,ENE,78,3.0,10.0,78,0.00,,---,0.01,VWS V13.01,2013-03-07 19:30:00,
2013-03-07 11:35:00,51.9,44.6,24.80,ESE,109,3.0,10.0,76,0.00,,---,0.01,VWS V13.01,2013-03-07 19:35:00,
2013-03-07 11:40:00,51.9,43.9,24.80,ESE,115,9.0,10.0,74,0.00,,---,0.01,VWS V13.01,2013-03-07 19:40:00,
2013-03-07 11:45:00,51.8,44.1,24.80,ENE,74,3.0,10.0,75,0.00,,---,0.01,VWS V13.01,2013-03-07 19:45:00,
2013-03-07 11:50:00,51.9,44.2,24.80,ENE,78,5.0,10.0,75,0.00,,---,0.01,VWS V13.01,2013-03-07 19:50:00,
2013-03-07 11:55:00,52.2,44.5,24.80,ESE,109,1.0,10.0,75,0.00,,---,0.01,VWS V13.01,2013-03-07 19:55:00,
2013-03-07 12:00:00,52.5,44.8,24.80,East,92,6.0,10.0,75,0.00,,---,0.01,VWS V13.01,2013-03-07 20:00:00,
2013-03-07 12:05:00,52.6,44.2,24.80,ENE,78,5.0,9.0,73,0.00,,---,0.01,VWS V13.01,2013-03-07 20:05:00,
2013-03-07 12:10:00,52.9,44.8,24.80,ESE,117,4.0,9.0,74,0.00,,---,0.01,VWS V13.01,2013-03-07 20:10:00,
2013-03-07 12:15:00,53.2,44.4,24.80,East,89,6.0,10.0,72,0.00,,---,0.01,VWS V13.01,2013-03-07 20:15:00,
2013-03-07 12:20:00,53.4,44.2,24.80,East,86,5.0,10.0,71,0.00,,---,0.01,VWS V13.01,2013-03-07 20:20:00,
2013-03-07 12:25:00,53.8,44.6,24.80,East,96,9.0,10.0,71,0.00,,---,0.01,VWS V13.01,2013-03-07 20:25:00,
2013-03-07 12:30:00,53.9,43.6,24.80,ENE,73,5.0,10.0,68,0.00,,---,0.01,VWS V13.01,2013-03-07 20:30:00,
2013-03-07 12:35:00,53.8,43.9,24.80,ESE,109,0.0,10.0,69,0.00,,---,0.01,VWS V13.01,2013-03-07 20:35:00,
2013-03-07 12:40:00,53.9,42.8,24.80,East,101,3.0,10.0,66,0.00,,---,0.01,VWS V13.01,2013-03-07 20:40:00,
2013-03-07 12:45:00,53.9,43.2,24.80,East,90,4.0,10.0,67,0.00,,---,0.01,VWS V13.01,2013-03-07 20:45:00,
2013-03-07 12:50:00,53.7,43.8,24.80,SE,128,5.0,10.0,69,0.00,,---,0.01,VWS V13.01,2013-03-07 20:50:00,
2013-03-07 12:55:00,53.7,43.4,24.80,ESE,114,4.0,10.0,68,0.00,,---,0.01,VWS V13.01,2013-03-07 20:55:00,
2013-03-07 13:00:00,53.6,43.3,24.80,East,101,6.0,10.0,68,0.00,,---,0.01,VWS V13.01,2013-03-07 21:00:00,
2013-03-07 13:05:00,53.3,43.0,24.80,ESE,113,2.0,7.0,68,0.00,,---,0.01,VWS V13.01,2013-03-07 21:05:00,
2013-03-07 13:10:00,53.4,43.1,24.80,ESE,119,4.0,7.0,68,0.00,,---,0.01,VWS V13.01,2013-03-07 21:10:00,
2013-03-07 13:15:00,53.7,42.6,24.80,SSE,154,1.0,7.0,66,0.00,,---,0.01,VWS V13.01,2013-03-07 21:15:00,
2013-03-07 13:20:00,53.9,42.8,24.80,ESE,111,4.0,8.0,66,0.00,,---,0.01,VWS V13.01,2013-03-07 21:20:00,
2013-03-07 13:25:00,53.7,42.6,24.80,ESE,108,5.0,8.0,66,0.00,,---,0.01,VWS V13.01,2013-03-07 21:25:00,
2013-03-07 13:30:00,53.8,42.3,24.80,East,95,3.0,8.0,65,0.00,,---,0.01,VWS V13.01,2013-03-07 21:30:00,
2013-03-07 13:35:00,54.0,41.7,24.80,ESE,111,2.0,9.0,63,0.00,,---,0.01,VWS V13.01,2013-03-07 21:35:00,
2013-03-07 13:41:00,54.2,42.3,24.80,ESE,111,0.0,9.0,64,0.00,,---,0.01,VWS V13.01,2013-03-07 21:41:00,
2013-03-07 13:46:00,54.5,42.2,24.80,ESE,117,0.0,9.0,63,0.00,,---,0.01,VWS V13.01,2013-03-07 21:46:00,
2013-03-07 13:51:00,54.6,41.9,24.80,ESE,105,0.0,9.0,62,0.00,,---,0.01,VWS V13.01,2013-03-07 21:51:00,
2013-03-07 13:56:00,54.5,42.6,24.80,ESE,123,2.0,9.0,64,0.00,,---,0.01,VWS V13.01,2013-03-07 21:56:00,
2013-03-07 14:01:00,54.7,42.0,24.80,SE,132,0.0,9.0,62,0.00,,---,0.01,VWS V13.01,2013-03-07 22:01:00,
2013-03-07 14:06:00,55.0,41.8,24.80,ESE,105,3.0,5.0,61,0.00,,---,0.01,VWS V13.01,2013-03-07 22:06:00,
2013-03-07 14:11:00,55.1,41.9,24.80,SSE,148,0.0,5.0,61,0.00,,---,0.01,VWS V13.01,2013-03-07 22:11:00,
2013-03-07 14:16:00,55.4,41.3,24.80,SSE,152,0.0,5.0,59,0.00,,---,0.01,VWS V13.01,2013-03-07 22:16:00,
2013-03-07 14:21:00,55.8,41.7,24.80,SSE,151,0.0,5.0,59,0.00,,---,0.01,VWS V13.01,2013-03-07 22:21:00,
2013-03-07 14:26:00,56.1,41.5,24.80,SE,140,0.0,6.0,58,0.00,,---,0.01,VWS V13.01,2013-03-07 22:26:00,
2013-03-07 14:31:00,56.1,41.1,24.80,SE,129,0.0,6.0,57,0.00,,---,0.01,VWS V13.01,2013-03-07 22:31:00,
2013-03-07 14:36:00,56.1,41.1,24.80,SE,129,0.0,6.0,57,0.00,,---,0.01,VWS V13.01,2013-03-07 22:36:00,
2013-03-07 14:41:00,56.2,41.2,24.80,SE,130,0.0,6.0,57,0.00,,---,0.01,VWS V13.01,2013-03-07 22:41:00,
2013-03-07 14:46:00,56.7,41.2,24.80,SE,130,3.0,6.0,56,0.00,,---,0.01,VWS V13.01,2013-03-07 22:46:00,
2013-03-07 14:51:00,56.7,40.7,24.80,SE,125,0.0,6.0,55,0.00,,---,0.01,VWS V13.01,2013-03-07 22:51:00,
2013-03-07 14:56:00,56.6,41.6,24.80,SE,125,2.0,6.0,57,0.00,,---,0.01,VWS V13.01,2013-03-07 22:56:00,
2013-03-07 15:01:00,56.4,40.9,24.80,SE,140,0.0,6.0,56,0.00,,---,0.01,VWS V13.01,2013-03-07 23:01:00,
2013-03-07 15:06:00,56.2,40.7,24.80,SE,140,0.0,3.0,56,0.00,,---,0.01,VWS V13.01,2013-03-07 23:06:00,
2013-03-07 15:11:00,55.9,40.5,24.80,SE,133,2.0,4.0,56,0.00,,---,0.01,VWS V13.01,2013-03-07 23:11:00,
2013-03-07 15:16:00,55.4,40.9,24.80,SE,133,0.0,4.0,58,0.00,,---,0.01,VWS V13.01,2013-03-07 23:16:00,
2013-03-07 15:21:00,55.0,40.5,24.80,SE,133,0.0,4.0,58,0.00,,---,0.01,VWS V13.01,2013-03-07 23:21:00,
2013-03-07 15:26:00,54.8,40.8,24.80,SE,133,0.0,4.0,59,0.00,,---,0.01,VWS V13.01,2013-03-07 23:26:00,
2013-03-07 15:31:00,54.8,39.4,24.80,SE,133,0.0,4.0,56,0.00,,---,0.01,VWS V13.01,2013-03-07 23:31:00,
2013-03-07 15:36:00,55.0,40.5,24.80,SE,133,0.0,4.0,58,0.00,,---,0.01,VWS V13.01,2013-03-07 23:36:00,
2013-03-07 15:44:00,55.2,40.2,24.80,SE,132,0.0,4.0,57,0.00,,---,0.01,VWS V13.01,2013-03-07 23:44:00,
2013-03-07 15:49:00,55.0,41.0,24.80,SE,131,0.0,4.0,59,0.00,,---,0.01,VWS V13.01,2013-03-07 23:49:00,
2013-03-07 15:54:00,54.8,40.3,24.80,SE,130,0.0,4.0,58,0.00,,---,0.01,VWS V13.01,2013-03-07 23:54:00,
2013-03-07 15:59:00,54.8,40.8,24.80,SE,128,3.0,4.0,59,0.00,,---,0.01,VWS V13.01,2013-03-07 23:59:00,
2013-03-07 16:05:00,54.7,40.2,24.80,ESE,115,0.0,1.0,58,0.00,,---,0.01,VWS V13.01,2013-03-08 00:05:00,
2013-03-07 16:10:00,54.8,40.3,24.80,ESE,116,0.0,1.0,58,0.00,,---,0.01,VWS V13.01,2013-03-08 00:10:00,
2013-03-07 16:15:00,54.9,40.0,24.80,ESE,116,0.0,1.0,57,0.00,,---,0.01,VWS V13.01,2013-03-08 00:15:00,
2013-03-07 16:20:00,54.8,40.3,24.80,ESE,116,0.0,1.0,58,0.00,,---,0.01,VWS V13.01,2013-03-08 00:20:00,
2013-03-07 16:25:00,54.9,42.6,24.80,ESE,116,0.0,1.0,63,0.00,,---,0.01,VWS V13.01,2013-03-08 00:25:00,
2013-03-07 16:30:00,55.1,43.6,24.80,ESE,116,0.0,1.0,65,0.00,,---,0.01,VWS V13.01,2013-03-08 00:30:00,
2013-03-07 16:35:00,55.3,41.7,24.80,ESE,115,0.0,1.0,60,0.00,,---,0.01,VWS V13.01,2013-03-08 00:35:00,
2013-03-07 16:40:00,55.2,42.4,24.80,ESE,115,0.0,1.0,62,0.00,,---,0.01,VWS V13.01,2013-03-08 00:40:00,
2013-03-07 16:45:00,55.1,42.3,24.80,ESE,116,0.0,1.0,62,0.00,,---,0.01,VWS V13.01,2013-03-08 00:45:00,
2013-03-07 16:50:00,55.1,42.3,24.80,ESE,116,0.0,1.0,62,0.00,,---,0.01,VWS V13.01,2013-03-08 00:50:00,
2013-03-07 16:55:00,55.0,42.2,24.80,ESE,115,0.0,1.0,62,0.00,,---,0.01,VWS V13.01,2013-03-08 00:55:00,
2013-03-07 17:00:00,55.0,43.9,24.80,ESE,115,0.0,1.0,66,0.00,,---,0.01,VWS V13.01,2013-03-08 01:00:00,
2013-03-07 17:05:00,55.0,45.0,24.80,ESE,116,0.0,0.0,69,0.00,,---,0.01,VWS V13.01,2013-03-08 01:05:00,
2013-03-07 17:10:00,55.0,45.8,24.80,ESE,115,0.0,0.0,71,0.00,,---,0.01,VWS V13.01,2013-03-08 01:10:00,
2013-03-07 17:15:00,55.0,45.8,24.80,ESE,116,0.0,1.0,71,0.00,,---,0.01,VWS V13.01,2013-03-08 01:15:00,
2013-03-07 17:20:00,54.9,45.7,24.80,ESE,115,0.0,1.0,71,0.00,,---,0.01,VWS V13.01,2013-03-08 01:20:00,
2013-03-07 17:25:00,54.8,45.2,24.80,ESE,115,0.0,1.0,70,0.00,,---,0.01,VWS V13.01,2013-03-08 01:25:00,
2013-03-07 17:30:00,54.5,44.9,24.80,ESE,116,0.0,1.0,70,0.00,,---,0.01,VWS V13.01,2013-03-08 01:30:00,
2013-03-07 17:35:00,54.4,44.8,24.80,ESE,116,0.0,1.0,70,0.00,,---,0.01,VWS V13.01,2013-03-08 01:35:00,
2013-03-07 17:40:00,54.1,44.9,24.80,ESE,115,0.0,1.0,71,0.00,,---,0.01,VWS V13.01,2013-03-08 01:40:00,
2013-03-07 17:45:00,53.7,44.2,24.80,ESE,116,0.0,2.0,70,0.00,,---,0.01,VWS V13.01,2013-03-08 01:45:00,
2013-03-07 17:50:00,53.4,45.0,24.80,ESE,116,0.0,2.0,73,0.00,,---,0.01,VWS V13.01,2013-03-08 01:50:00,
2013-03-07 17:55:00,53.1,45.0,24.80,West,269,2.0,6.0,74,0.00,,---,0.01,VWS V13.01,2013-03-08 01:55:00,
2013-03-07 18:00:00,52.6,45.3,24.80,WSW,240,3.0,7.0,76,0.00,,---,0.01,VWS V13.01,2013-03-08 02:00:00,
2013-03-07 18:05:00,52.3,45.7,24.80,SSE,153,0.0,1.0,78,0.00,,---,0.01,VWS V13.01,2013-03-08 02:05:00,
2013-03-07 18:10:00,52.0,45.7,24.80,SE,142,0.0,4.0,79,0.00,,---,0.01,VWS V13.01,2013-03-08 02:10:00,
2013-03-07 18:15:00,51.7,44.7,24.80,SSW,206,0.0,5.0,77,0.00,,---,0.01,VWS V13.01,2013-03-08 02:15:00,
2013-03-07 18:20:00,51.6,45.0,24.80,SSW,206,0.0,5.0,78,0.00,,---,0.01,VWS V13.01,2013-03-08 02:20:00,
2013-03-07 18:26:00,51.5,44.9,24.80,SSW,206,0.0,5.0,78,0.00,,---,0.01,VWS V13.01,2013-03-08 02:26:00,
2013-03-07 18:31:00,51.3,45.3,24.80,SSW,206,0.0,5.0,80,0.00,,---,0.01,VWS V13.01,2013-03-08 02:31:00,
2013-03-07 18:36:00,51.2,45.6,24.80,SSW,206,0.0,5.0,81,0.00,,---,0.01,VWS V13.01,2013-03-08 02:36:00,
2013-03-07 18:41:00,51.2,45.9,24.80,SSW,206,0.0,5.0,82,0.00,,---,0.01,VWS V13.01,2013-03-08 02:41:00,
2013-03-07 18:46:00,51.2,45.9,24.80,SSW,206,0.0,5.0,82,0.00,,---,0.01,VWS V13.01,2013-03-08 02:46:00,
2013-03-07 18:51:00,51.1,46.1,24.80,SSW,206,0.0,5.0,83,0.00,,---,0.01,VWS V13.01,2013-03-08 02:51:00,
2013-03-07 18:56:00,51.0,46.0,24.80,SSW,206,0.0,5.0,83,0.00,,---,0.01,VWS V13.01,2013-03-08 02:56:00,
2013-03-07 19:01:00,50.9,45.9,24.80,SSW,206,0.0,5.0,83,0.00,,---,0.01,VWS V13.01,2013-03-08 03:01:00,
2013-03-07 19:06:00,50.8,46.2,24.80,SSW,206,0.0,0.0,84,0.00,,---,0.01,VWS V13.01,2013-03-08 03:06:00,
2013-03-07 19:11:00,50.7,46.0,24.80,SSW,206,0.0,0.0,84,0.00,,---,0.01,VWS V13.01,2013-03-08 03:11:00,
2013-03-07 19:16:00,50.6,46.0,24.80,SSW,206,0.0,0.0,84,0.00,,---,0.01,VWS V13.01,2013-03-08 03:16:00,
2013-03-07 19:21:00,50.6,46.0,24.80,SSW,206,0.0,1.0,84,0.00,,---,0.01,VWS V13.01,2013-03-08 03:21:00,
2013-03-07 19:26:00,50.5,45.8,24.80,SSW,206,0.0,1.0,84,0.00,,---,0.01,VWS V13.01,2013-03-08 03:26:00,
2013-03-07 19:31:00,50.4,45.8,24.80,SSW,206,0.0,1.0,84,0.00,,---,0.01,VWS V13.01,2013-03-08 03:31:00,
2013-03-07 19:36:00,50.4,45.8,24.80,SSW,206,0.0,1.0,84,0.00,,---,0.01,VWS V13.01,2013-03-08 03:36:00,
2013-03-07 19:41:00,50.3,45.7,24.80,SSW,206,0.0,1.0,84,0.00,,---,0.01,VWS V13.01,2013-03-08 03:41:00,
2013-03-07 19:46:00,50.2,45.6,24.80,SSW,206,0.0,1.0,84,0.00,,---,0.01,VWS V13.01,2013-03-08 03:46:00,
2013-03-07 19:51:00,50.1,45.5,24.80,SSW,206,0.0,1.0,84,0.00,,---,0.01,VWS V13.01,2013-03-08 03:51:00,
2013-03-07 19:56:00,50.1,45.5,24.80,SSW,206,0.0,1.0,84,0.00,,---,0.01,VWS V13.01,2013-03-08 03:56:00,
2013-03-07 20:01:00,50.0,45.0,24.80,SSW,206,0.0,1.0,83,0.00,,---,0.01,VWS V13.01,2013-03-08 04:01:00,
2013-03-07 20:06:00,50.0,45.4,24.80,SSW,206,0.0,0.0,84,0.00,,---,0.01,VWS V13.01,2013-03-08 04:06:00,
2013-03-07 20:11:00,49.9,45.3,24.80,SSW,206,0.0,0.0,84,0.00,,---,0.01,VWS V13.01,2013-03-08 04:11:00,
2013-03-07 20:16:00,49.9,45.0,24.80,SSW,206,0.0,0.0,83,0.00,,---,0.01,VWS V13.01,2013-03-08 04:16:00,
2013-03-07 20:21:00,49.8,45.2,24.80,SSW,206,0.0,0.0,84,0.00,,---,0.01,VWS V13.01,2013-03-08 04:21:00,
2013-03-07 20:26:00,49.8,45.2,24.80,SSW,206,0.0,0.0,84,0.00,,---,0.01,VWS V13.01,2013-03-08 04:26:00,
2013-03-07 20:31:00,49.7,45.1,24.80,SSW,206,0.0,1.0,84,0.00,,---,0.01,VWS V13.01,2013-03-08 04:31:00,
2013-03-07 20:36:00,49.7,44.8,24.80,SSW,206,0.0,1.0,83,0.00,,---,0.01,VWS V13.01,2013-03-08 04:36:00,
2013-03-07 20:41:00,49.6,44.7,24.80,SSW,206,0.0,1.0,83,0.00,,---,0.01,VWS V13.01,2013-03-08 04:41:00,
2013-03-07 20:46:00,49.6,44.7,24.80,SSW,206,0.0,1.0,83,0.00,,---,0.01,VWS V13.01,2013-03-08 04:46:00,
2013-03-07 20:51:00,49.5,44.2,24.80,SSW,206,0.0,3.0,82,0.00,,---,0.01,VWS V13.01,2013-03-08 04:51:00,
2013-03-07 20:56:00,49.4,44.1,24.80,SSW,206,0.0,3.0,82,0.00,,---,0.01,VWS V13.01,2013-03-08 04:56:00,
2013-03-07 21:00:00,49.5,44.6,24.80,SSW,207,0.0,3.0,83,0.00,,---,0.01,VWS V13.01,2013-03-08 05:00:00,
2013-03-07 21:02:00,49.5,44.2,24.80,SSW,207,0.0,3.0,82,0.00,,---,0.01,VWS V13.01,2013-03-08 05:02:00,
2013-03-07 21:07:00,49.5,44.6,24.80,SSW,207,0.0,0.0,83,0.00,,---,0.01,VWS V13.01,2013-03-08 05:07:00,
2013-03-07 21:12:00,49.5,44.6,24.80,SSW,207,0.0,0.0,83,0.00,,---,0.01,VWS V13.01,2013-03-08 05:12:00,
2013-03-07 21:16:00,49.4,44.5,24.80,SSW,206,0.0,0.0,83,0.00,,---,0.01,VWS V13.01,2013-03-08 05:16:00,
2013-03-07 21:21:00,49.4,44.5,24.80,SSW,207,0.0,0.0,83,0.00,,---,0.01,VWS V13.01,2013-03-08 05:21:00,
2013-03-07 21:26:00,49.4,44.8,24.80,SSW,207,0.0,0.0,84,0.00,,---,0.01,VWS V13.01,2013-03-08 05:26:00,
2013-03-07 21:31:00,49.4,44.8,24.80,SSW,207,0.0,0.0,84,0.00,,---,0.01,VWS V13.01,2013-03-08 05:31:00,
2013-03-07 21:36:00,49.4,44.8,24.80,SSW,207,0.0,0.0,84,0.00,,---,0.01,VWS V13.01,2013-03-08 05:36:00,
2013-03-07 21:41:00,49.4,44.8,24.80,SSW,206,0.0,0.0,84,0.00,,---,0.01,VWS V13.01,2013-03-08 05:41:00,
2013-03-07 21:46:00,49.4,45.1,24.80,SSW,207,0.0,0.0,85,0.00,,---,0.01,VWS V13.01,2013-03-08 05:46:00,
2013-03-07 21:51:00,49.3,45.0,24.80,SSW,207,0.0,0.0,85,0.00,,---,0.01,VWS V13.01,2013-03-08 05:51:00,
2013-03-07 21:56:00,49.3,45.0,24.80,SSW,207,0.0,0.0,85,0.00,,---,0.01,VWS V13.01,2013-03-08 05:56:00,
2013-03-07 22:01:00,49.2,44.9,24.80,SSW,207,0.0,1.0,85,0.00,,---,0.01,VWS V13.01,2013-03-08 06:01:00,
2013-03-07 22:06:00,49.1,44.8,24.80,SSW,207,0.0,0.0,85,0.00,,---,0.01,VWS V13.01,2013-03-08 06:06:00,
2013-03-07 22:11:00,49.1,44.8,24.80,SSW,207,0.0,1.0,85,0.00,,---,0.01,VWS V13.01,2013-03-08 06:11:00,
2013-03-07 22:16:00,49.0,44.7,24.80,SSW,206,0.0,1.0,85,0.00,,---,0.01,VWS V13.01,2013-03-08 06:16:00,
2013-03-07 22:21:00,48.9,44.6,24.80,SSW,206,0.0,1.0,85,0.00,,---,0.01,VWS V13.01,2013-03-08 06:21:00,
2013-03-07 22:26:00,48.7,44.7,24.80,SSW,206,0.0,1.0,86,0.00,,---,0.01,VWS V13.01,2013-03-08 06:26:00,
2013-03-07 22:31:00,48.7,44.7,24.80,SSW,207,0.0,1.0,86,0.00,,---,0.01,VWS V13.01,2013-03-08 06:31:00,
2013-03-07 22:36:00,48.6,44.6,24.80,SSW,207,0.0,1.0,86,0.00,,---,0.01,VWS V13.01,2013-03-08 06:36:00,
2013-03-07 22:41:00,48.5,44.5,24.80,SSW,206,0.0,1.0,86,0.00,,---,0.01,VWS V13.01,2013-03-08 06:41:00,
2013-03-07 22:46:00,48.4,44.1,24.80,SSW,206,0.0,1.0,85,0.00,,---,0.01,VWS V13.01,2013-03-08 06:46:00,
2013-03-07 22:51:00,48.2,44.2,24.80,SSW,207,0.0,1.0,86,0.00,,---,0.01,VWS V13.01,2013-03-08 06:51:00,
2013-03-07 22:56:00,48.1,44.1,24.80,SSW,207,0.0,1.0,86,0.00,,---,0.01,VWS V13.01,2013-03-08 06:56:00,
2013-03-07 23:01:00,48.1,44.1,24.80,SSW,207,0.0,1.0,86,0.00,,---,0.01,VWS V13.01,2013-03-08 07:01:00,
2013-03-07 23:06:00,48.0,44.0,24.80,SSW,207,0.0,0.0,86,0.00,,---,0.01,VWS V13.01,2013-03-08 07:06:00,
2013-03-07 23:11:00,47.9,43.9,24.80,SSW,206,0.0,0.0,86,0.00,,---,0.01,VWS V13.01,2013-03-08 07:11:00,
2013-03-07 23:16:00,47.8,43.8,24.80,SSW,206,0.0,0.0,86,0.00,,---,0.01,VWS V13.01,2013-03-08 07:16:00,
2013-03-07 23:21:00,47.8,43.8,24.80,SSW,207,0.0,0.0,86,0.00,,---,0.01,VWS V13.01,2013-03-08 07:21:00,
2013-03-07 23:26:00,47.7,43.7,24.80,SSW,207,0.0,0.0,86,0.00,,---,0.01,VWS V13.01,2013-03-08 07:26:00,
2013-03-07 23:31:00,47.6,43.6,24.80,SSW,207,0.0,0.0,86,0.00,,---,0.01,VWS V13.01,2013-03-08 07:31:00,
2013-03-07 23:36:00,47.5,43.8,24.80,SSW,206,0.0,0.0,87,0.00,,---,0.01,VWS V13.01,2013-03-08 07:36:00,
2013-03-07 23:41:00,47.4,43.4,24.80,SSW,207,0.0,0.0,86,0.00,,---,0.01,VWS V13.01,2013-03-08 07:41:00,
2013-03-07 23:46:00,47.3,43.3,24.80,SSW,207,0.0,0.0,86,0.00,,---,0.01,VWS V13.01,2013-03-08 07:46:00,
2013-03-07 23:51:00,47.3,43.3,24.80,SSW,206,0.0,0.0,86,0.00,,---,0.01,VWS V13.01,2013-03-08 07:51:00,
2013-03-07 23:56:00,47.2,43.2,24.80,SSW,206,0.0,0.0,86,0.00,,---,0.01,VWS V13.01,2013-03-08 07:56:00,